Regional Weather Roundup
Issued by NWS

Home | Current Version | Previous Version | Graphics & Text | Print | Product List | Glossary On
Versions: 1 2 3 4 5 6 7 8 9 10 11 12 13 14 15 16 17 18 19 20 21 22 23 24 25 26 27 28 29 30 31 32 33 34 35 36 37 38 39 40 41 42 43 44 45 46 47 48 49 50
000
ASUS45 KTFX 301310
RWRMT
MONTANA REGIONAL WEATHER ROUNDUP
NATIONAL WEATHER SERVICE GREAT FALLS MT
700 AM MDT SAT APR 30 2016

NOTE: "FAIR" INDICATES FEW OR NO CLOUDS BELOW 12000 FEET WITH NO
SIGNIFICANT WEATHER AND/OR OBSTRUCTIONS TO VISIBILITY.

MTZ001>007-043-301400-
WEST OF THE DIVIDE

CITY           SKY/WX    TMP DP  RH WIND       PRES   REMARKS
KALISPELL      PTCLDY    33  33 100 CALM      30.15R
MISSOULA       LGT RAIN  41  38  89 NW5       30.14R FOG
BUTTE          CLOUDY    37  34  89 NW3       30.08R
MULLAN PASS    MOCLDY    31  30  96 CALM      30.11R
ANACONDA         N/A     37  36  93 N5        30.09R
DEER LODGE       N/A     39  36  87 NW6       30.11R
EUREKA           N/A     39  36  87 CALM      30.17R
HAMILTON         N/A     41  37  87 CALM      30.12R
LIBBY            N/A     36  36 100 CALM      30.17R
$$

MTZ008-052>055-301400-
SOUTHWEST MONTANA

CITY           SKY/WX    TMP DP  RH WIND       PRES   REMARKS
BOZEMAN        CLOUDY    39  33  79 CALM      30.08R
DILLON         CLOUDY    37  30  75 NE9       30.04R WCI  30
ENNIS          CLOUDY    37  32  81 SE5       30.09R
THREE FORKS      N/A     38  38 100 CALM      30.06R
TWIN BRIDGES     N/A     39  28  65 N9        30.02R
$$

MTZ009-010-012-014-046-048-049-054-301400-
EAST SLOPES AND CENTRAL MONTANA

CITY           SKY/WX    TMP DP  RH WIND       PRES   REMARKS
CUT BANK       CLOUDY    33  32  96 NW7       30.16R WCI  27
GREAT FALLS    CLOUDY    37  35  92 NW3       30.12R
HELENA         CLOUDY    43  35  73 W3        30.10R
CHOTEAU          N/A     36  36 100 NW7       30.14R WCI  30
$$

MTZ011-013-016-021-045-047-050-051-301400-
NORTH CENTRAL MONTANA

CITY           SKY/WX    TMP DP  RH WIND       PRES   REMARKS
HAVRE          CLOUDY    41  37  86 E8        30.17R
LEWISTOWN      CLOUDY    41  35  79 E12       30.13R
N BAR RANCH    CLOUDY    37  36  93 CALM      30.16R
CHINOOK          N/A     39  39 100 CALM      30.19R
$$

MTZ017>020-022>027-061-062-301400-
NORTHEAST MONTANA

CITY           SKY/WX    TMP DP  RH WIND       PRES   REMARKS
GLASGOW        CLOUDY    44  33  65 E12       30.20R
JORDAN           N/A     36  34  92 CALM      30.16R
SIDNEY         SUNNY     39  30  70 N9        30.24R
WOLF POINT     SUNNY     38  31  76 E9        30.24R WCI  31
PLENTYWOOD       N/A     43  28  56 NE10      30.26R
POPLAR           N/A     37  28  70 NE12      30.25R WCI  30
$$

MTZ028>42-056>058-301400-
SOUTHCENTRAL AND SOUTHEAST MONTANA

CITY           SKY/WX    TMP DP  RH WIND       PRES   REMARKS
BAKER          CLOUDY    40  32  73 NE16      30.15R
BILLINGS       CLOUDY    40  36  86 NE7       30.11R
LIVINGSTON     CLOUDY    39  34  82 E16       30.08R WCI  30
MILES CITY     CLOUDY    44  37  76 NE12      30.14R
FORSYTH          N/A     43  39  87 CALM      30.14R
LAUREL           N/A     40  29  65 N3        30.08R
ROUNDUP          N/A     40  35  82 CALM      30.04R
$$

REGIONAL REPORTS...DAKOTAS

CITY           SKY/WX    TMP DP  RH WIND       PRES   REMARKS
WILLISTON      SUNNY     43  31  62 N6        30.25R
MINOT          SUNNY     42  27  55 CALM      30.26R
DICKINSON      MOSUNNY   35  29  78 N8        30.15R WCI  29
BEACH            N/A     39  34  81 E6        30.22R
CROSBY           N/A     32  30  93 NE6       30.32R WCI  26
WATFORD CITY     N/A     39  32  75 NE3       30.24R
BISMARCK       CLOUDY    43  34  70 NE15      30.17R
GRAND FORKS    MOSUNNY   44  34  67 E9        30.28R
FARGO          MOSUNNY   45  32  60 NE13      30.20S
BUFFALO SD       N/A     40  34  79 NE9       30.05R
RAPID CITY     CLOUDY    40  37  89 N13       30.05R
$$

REGIONAL REPORTS...WYOMING/IDAHO/WASHINGTON

CITY           SKY/WX    TMP DP  RH WIND       PRES   REMARKS
GILLETTE       CLOUDY    37  35  92 NE8       30.07R WCI  31
SHERIDAN       CLOUDY    40  37  89 N3        30.10R
BUFFALO WY       N/A    N/A N/A N/A MISG      30.08R
CODY           CLOUDY    37  36  93 N10       30.05R WCI  30
YELLOWSTONE LA   N/A     29  24  82 CALM      30.03R
IDAHO FALLS    CLEAR     31  30  96 N3        29.97R
SALMON         CLOUDY    37  34  87 CALM      30.06R
BOISE          CLEAR     43  36  76 NW15      30.01R
SPOKANE        DRIZZLE   46  44  93 NE6       30.15R FOG
$$

REGIONAL REPORTS...ALBERTA

CITY           SKY/WX    TMP DP  RH WIND       PRES   REMARKS
EDMONTON       CLEAR     43  30  61 SW5       30.18R
CALGARY        CLOUDY    43  32  65 VRB2      30.18R
LETHBRIDGE     MOCLDY    37  36  93 S13       30.17R WCI  29
MEDICINE HAT   CLOUDY    46  39  76 E3        30.19R
WATERTON GATE    N/A     28  27  93 SW5         N/A
CARDSTON         N/A     34  30  86 SW6         N/A  WCI  29
MILK RIVER       N/A     34  34 100 NW2         N/A
$$

REGIONAL REPORTS...SASKATCHEWAN

CITY           SKY/WX    TMP DP  RH WIND       PRES   REMARKS
SWIFT CURRENT  PTSUNNY   43  32  65 E8        30.23R
REGINA         SUNNY     41  25  52 SE13      30.32R
SASKATOON      SUNNY     43  27  52 SE10      30.29R
CYPRESS HILLS    N/A     39  34  81 SE6         N/A
VAL MARIE        N/A     43  34  70 E7          N/A
ROCKGLEN         N/A     37  27  65 E2          N/A
ASSINIBOIA       N/A     45  39  81 S1          N/A
$$



USA.gov is the U.S. government's official web portal to all federal, state and local government web resources and services.